User: anonymous   Login
Location: Unspecified
(0.0000°N, 0.0000°E)
Time: 15:57:33
(UTC+00:00)
Language:

Transit 2A Rocket - Orbit

View from above orbital plane
View from above orbital plane
View from above satellite
View from above satellite

Ground track
Ground track

The orbit data is extracted from the following two-line orbital elements,

1 00047U 60007C   21101.63945176 -.00000028  00000-0  18769-4 0  9996
2 00047  66.6654  77.6617 0219852  84.8910 277.7245 14.42142301177671
Epoch (UTC): 11 April 2021 15:20:48
Eccentricity: 0.0219852
inclination: 66.6654°
perigee height: 594 km
apogee height: 908 km
right ascension of ascending node: 77.6617°
argument of perigee: 84.8910°
revolutions per day: 14.42142301
mean anomaly at epoch: 277.7245°
orbit number at epoch: 17767

The dashed part of the orbit path shows where the satellite is in the earth's shadow,  

DLR